International Skating Union - Official Site

ISU World Cup Salt Lake City
November 20-22, 2015

Draw | Lap Times | Index | World Cup

Referee: Rick  HUNT  (CAN)
Starter: Garth  LINDER  (USA)
StartTime: EndTime: Air Temp: Ice Temp: Humidity:
13:00 13:50 18.3℃ -12.4℃ 27%
Result 5000m Ladies Division A
Rankings as of Nov 22 2015 4:19PM
Rank: No.: Name: Nation: Time: Behind: Points:
1 225 Martina  Sábliková CZE CZE 6:47.42200m - 20.24 - (20.2)
600m - 51.63 - (31.3)
1000m - 1:23.42 - (31.7)
1400m - 1:55.51 - (32.0)
1800m - 2:27.55 - (32.0)
2200m - 2:59.63 - (32.0)
2600m - 3:32.05 - (32.4)
3000m - 4:04.31 - (32.2)
3400m - 4:36.62 - (32.3)
3800m - 5:09.01 - (32.3)
4200m - 5:41.45 - (32.4)
4600m - 6:14.35 - (32.9)
5000m - 6:47.42 - (33.0)
100
2 291 Natalya  Voronina RUS RUS 6:53.16200m - 20.47 - (20.4)
600m - 52.64 - (32.1)
1000m - 1:24.26 - (31.6)
1400m - 1:56.71 - (32.4)
1800m - 2:29.03 - (32.3)
2200m - 3:01.72 - (32.6)
2600m - 3:34.37 - (32.6)
3000m - 4:07.54 - (33.1)
3400m - 4:40.26 - (32.7)
3800m - 5:13.56 - (33.3)
4200m - 5:46.88 - (33.3)
4600m - 6:20.51 - (33.6)
5000m - 6:53.16 - (32.6)
5.74 80
3 206 Ivanie  Blondin CAN CAN 6:55.88200m - 20.71 - (20.7)
600m - 52.36 - (31.6)
1000m - 1:24.95 - (32.5)
1400m - 1:57.38 - (32.4)
1800m - 2:29.97 - (32.5)
2200m - 3:02.49 - (32.5)
2600m - 3:35.20 - (32.7)
3000m - 4:07.90 - (32.7)
3400m - 4:40.83 - (32.9)
3800m - 5:13.77 - (32.9)
4200m - 5:47.05 - (33.2)
4600m - 6:20.60 - (33.5)
5000m - 6:55.88 - (35.2)
8.46 70
4 233 Claudia  Pechstein GER GER 6:57.23200m - 20.52 - (20.5)
600m - 52.15 - (31.6)
1000m - 1:24.22 - (32.0)
1400m - 1:56.22 - (32.0)
1800m - 2:28.32 - (32.1)
2200m - 3:00.66 - (32.3)
2600m - 3:33.21 - (32.5)
3000m - 4:05.94 - (32.7)
3400m - 4:39.20 - (33.2)
3800m - 5:13.24 - (34.0)
4200m - 5:47.85 - (34.6)
4600m - 6:22.65 - (34.8)
5000m - 6:57.23 - (34.5)
9.81 60
5 269 Irene  Schouten NED NED 7:00.19200m - 20.58 - (20.5)
600m - 52.86 - (32.2)
1000m - 1:25.08 - (32.2)
1400m - 1:57.47 - (32.3)
1800m - 2:29.83 - (32.3)
2200m - 3:02.42 - (32.5)
2600m - 3:35.22 - (32.8)
3000m - 4:08.20 - (32.9)
3400m - 4:41.45 - (33.2)
3800m - 5:15.00 - (33.5)
4200m - 5:49.38 - (34.3)
4600m - 6:24.44 - (35.0)
5000m - 7:00.19 - (35.7)
12.77 50
6 243 Misaki  Oshigiri JPN JPN 7:01.93200m - 20.20 - (20.2)
600m - 52.45 - (32.2)
1000m - 1:25.52 - (33.0)
1400m - 1:58.00 - (32.4)
1800m - 2:30.49 - (32.4)
2200m - 3:03.21 - (32.7)
2600m - 3:36.54 - (33.3)
3000m - 4:10.00 - (33.4)
3400m - 4:43.72 - (33.7)
3800m - 5:17.73 - (34.0)
4200m - 5:52.42 - (34.6)
4600m - 6:27.13 - (34.7)
5000m - 7:01.93 - (34.8)
14.51 45
7 286 Olga  Graf RUS RUS 7:02.60200m - 21.23 - (21.2)
600m - 53.41 - (32.1)
1000m - 1:26.61 - (33.2)
1400m - 1:59.89 - (33.2)
1800m - 2:32.94 - (33.0)
2200m - 3:05.94 - (33.0)
2600m - 3:39.23 - (33.2)
3000m - 4:12.68 - (33.4)
3400m - 4:46.38 - (33.7)
3800m - 5:20.00 - (33.6)
4200m - 5:53.93 - (33.9)
4600m - 6:28.27 - (34.3)
5000m - 7:02.60 - (34.3)
15.18 40
8 244 Miho  Takagi JPN JPN 7:04.63200m - 20.59 - (20.5)
600m - 52.74 - (32.1)
1000m - 1:24.91 - (32.1)
1400m - 1:57.68 - (32.7)
1800m - 2:30.40 - (32.7)
2200m - 3:03.10 - (32.7)
2600m - 3:35.97 - (32.8)
3000m - 4:09.01 - (33.0)
3400m - 4:42.51 - (33.5)
3800m - 5:17.48 - (34.9)
4200m - 5:52.89 - (35.4)
4600m - 6:28.53 - (35.6)
5000m - 7:04.63 - (36.1)
17.21 35
9 268 Yvonne  Nauta NED NED 7:05.88200m - 20.54 - (20.5)
600m - 51.99 - (31.4)
1000m - 1:24.06 - (32.0)
1400m - 1:56.37 - (32.3)
1800m - 2:28.80 - (32.4)
2200m - 3:01.25 - (32.4)
2600m - 3:33.94 - (32.6)
3000m - 4:06.96 - (33.0)
3400m - 4:40.58 - (33.6)
3800m - 5:14.89 - (34.3)
4200m - 5:50.21 - (35.3)
4600m - 6:27.00 - (36.7)
5000m - 7:05.88 - (38.8)
18.46 30
10 237 Shoko  Fujimura JPN JPN 7:06.10200m - 21.64 - (21.6)
600m - 54.66 - (33.0)
1000m - 1:28.02 - (33.3)
1400m - 2:01.44 - (33.4)
1800m - 2:34.93 - (33.4)
2200m - 3:08.20 - (33.2)
2600m - 3:41.84 - (33.6)
3000m - 4:15.65 - (33.8)
3400m - 4:49.85 - (34.2)
3800m - 5:24.16 - (34.3)
4200m - 5:58.17 - (34.0)
4600m - 6:32.27 - (34.1)
5000m - 7:06.10 - (33.8)
18.68 25
11 214 Isabelle  Weidemann CAN CAN 7:12.00200m - 22.33 - (22.3)
600m - 55.96 - (33.6)
1000m - 1:29.34 - (33.3)
1400m - 2:03.28 - (33.9)
1800m - 2:36.85 - (33.5)
2200m - 3:10.48 - (33.6)
2600m - 3:44.16 - (33.6)
3000m - 4:18.45 - (34.2)
3400m - 4:52.46 - (34.0)
3800m - 5:26.88 - (34.4)
4200m - 6:01.58 - (34.7)
4600m - 6:36.62 - (35.0)
5000m - 7:12.00 - (35.3)
24.58 21
12 288 Elizaveta  Kazelina RUS RUS 7:17.50200m - 20.81 - (20.8)
600m - 53.58 - (32.7)
1000m - 1:27.84 - (34.2)
1400m - 2:02.48 - (34.6)
1800m - 2:37.05 - (34.5)
2200m - 3:11.97 - (34.9)
2600m - 3:46.85 - (34.8)
3000m - 4:21.96 - (35.1)
3400m - 4:57.57 - (35.6)
3800m - 5:33.15 - (35.5)
4200m - 6:08.24 - (35.0)
4600m - 6:43.45 - (35.2)
5000m - 7:17.50 - (34.0)
30.08 18